Wind_Speed
56 57 58 59 59 60 60 61 62 63 62 61 61 61 62 62 63 63 63 62 62 62 62 62 63 63 63 63 63 63 63 63 62 62 62 61 61 60
57 58 58 59 59 60 61 61 62 64 63 62 62 63 63 63 63 63 63 64 64 63 63 63 64 64 64 65 65 65 65 64 64 64 64 64 63 63
57 58 59 59 59 60 61 62 62 63 63 62 62 63 64 63 63 63 63 63 64 64 64 64 64 65 65 65 65 66 65 65 65 65 66 65 65 65
57 57 58 58 59 59 60 61 62 62 63 62 62 63 63 64 63 63 63 63 63 63 63 64 64 65 65 65 66 66 66 66 66 67 67 67 66 67
57 57 58 58 58 59 59 60 60 61 62 62 62 61 62 62 63 63 64 64 64 64 64 64 64 64 65 65 65 65 66 66 66 67 68 68 68 69
56 57 57 58 58 58 58 59 59 60 60 60 60 59 59 60 61 62 62 63 63 63 63 63 63 63 63 64 64 65 66 66 66 67 67 68 68 69
56 55 56 56 57 58 58 58 58 59 59 59 58 57 57 58 58 59 60 60 60 61 61 62 62 62 62 62 62 63 64 64 65 65 65 66 67 67
54 54 54 54 56 57 57 57 57 57 57 57 57 56 56 56 57 58 58 59 58 59 60 59 60 60 60 60 60 61 61 62 63 63 64 64 65 65
52 52 53 53 53 54 54 55 55 56 56 56 56 55 55 56 57 57 57 57 57 58 59 58 58 57 57 57 58 58 58 58 59 60 61 61 62 62
51 51 52 52 53 53 52 52 53 54 55 55 55 55 55 55 56 56 56 56 56 56 57 56 55 55 54 54 54 53 54 54 55 56 56 57 58 58
50 50 50 50 51 52 52 52 52 53 53 53 53 54 53 54 54 55 55 55 54 53 54 55 54 54 53 52 51 51 51 51 51 52 53 53 54 56
49 49 49 49 49 49 50 51 51 51 52 52 52 52 51 51 52 53 53 53 52 50 51 52 51 51 50 49 49 49 49 49 50 50 51 51 53 54
48 48 48 47 47 47 48 49 49 49 50 50 50 50 50 51 51 51 51 51 49 48 48 49 48 49 49 48 47 48 49 49 48 48 48 48 49 51
47 47 46 46 45 45 45 47 47 47 47 48 49 49 49 49 49 48 48 48 47 46 46 47 47 47 47 47 47 46 47 47 47 47 47 46 46 47
46 46 45 45 45 45 45 45 46 47 47 47 47 47 47 46 46 45 45 45 45 44 45 45 46 46 46 46 46 45 45 46 47 47 46 46 46 46
45 45 45 45 45 45 45 45 46 46 46 46 45 45 44 43 43 43 43 43 43 43 43 43 44 44 44 44 44 44 44 44 45 45 45 45 46 46
44 43 43 43 44 44 44 44 44 43 44 43 42 42 42 42 42 41 42 42 41 41 41 41 43 43 43 42 42 42 43 43 43 44 44 44 44 44
43 42 42 42 42 42 43 43 42 42 41 40 40 40 39 40 40 40 40 40 40 40 40 41 41 42 42 41 41 41 41 41 42 42 42 42 42 42
42 42 41 41 41 41 41 41 40 40 39 39 39 39 38 38 38 39 39 38 38 38 37 38 40 41 41 40 39 40 40 40 41 41 40 40 40 39
40 40 40 39 39 38 38 38 38 38 37 37 37 37 37 37 37 37 37 37 36 36 36 36 37 38 38 38 37 37 38 39 39 39 39 39 38 38
38 38 37 37 36 36 36 35 36 36 36 35 35 35 34 34 34 35 35 35 35 35 35 35 36 36 36 36 35 34 35 37 37 38 38 38 37 37
35 36 36 35 34 34 33 33 33 33 34 34 33 33 32 32 33 33 33 33 33 34 34 35 35 35 35 35 34 34 34 35 35 36 36 36 35 34
33 32 32 33 33 32 31 31 31 31 31 32 32 32 32 32 32 32 31 32 32 33 34 34 35 35 35 35 34 34 34 34 35 35 34 34 33 32
Wind_Direction
268 268 268 267 267 267 265 265 264 263 262 261 262 262 262 261 261 261 261 261 261 261 261 261 260 260 260 260 259 259 259 258 258 258 258 257 257 256
270 269 269 268 267 267 266 266 265 265 264 262 262 262 261 261 261 261 261 261 261 261 261 261 261 261 261 260 259 258 258 258 258 258 257 257 257 256
270 269 269 268 268 267 267 267 266 265 265 264 263 263 262 262 262 262 261 262 262 262 261 262 262 262 262 260 259 258 258 257 258 257 257 257 256 256
271 270 270 270 270 269 268 267 267 266 265 264 264 263 263 263 263 262 262 262 262 262 262 263 263 263 263 262 261 259 258 258 257 257 257 257 257 256
272 272 271 271 270 270 269 268 268 267 266 265 264 264 263 263 263 262 262 262 262 262 262 263 263 263 263 262 262 260 258 258 258 258 257 256 257 256
273 273 272 272 271 270 270 269 268 267 266 266 265 264 263 263 263 263 263 262 262 262 263 263 263 263 263 262 262 260 258 258 257 257 257 256 256 256
274 273 273 273 272 271 270 269 267 267 266 265 264 263 263 263 264 264 264 263 262 262 263 263 263 263 263 262 261 260 258 258 257 257 257 256 256 256
274 273 273 273 273 271 271 270 269 267 266 265 263 263 263 263 264 264 264 263 262 262 263 262 262 262 262 261 260 259 259 259 258 257 257 256 256 256
275 273 273 273 273 273 271 270 269 268 266 265 265 264 264 264 264 264 264 264 263 262 263 262 261 261 261 260 260 260 260 259 258 257 257 256 255 254
275 274 273 273 272 272 271 270 269 268 266 266 266 265 264 265 264 264 264 264 263 262 262 262 260 259 259 260 260 260 260 259 259 258 257 255 254 253
276 275 274 273 272 272 271 271 269 268 267 267 266 265 264 264 264 264 264 263 262 261 261 262 260 258 258 259 259 259 259 258 258 257 256 256 255 254
278 277 276 274 273 273 273 272 270 269 268 267 267 265 264 263 263 263 263 263 262 260 260 261 260 258 256 256 257 258 258 258 258 257 256 257 256 256
278 277 277 275 275 274 274 272 271 270 269 267 267 265 264 264 263 261 261 262 261 260 260 259 259 258 257 255 256 257 259 259 258 258 258 258 257 256
278 277 276 276 275 274 274 273 272 271 270 268 268 267 265 264 262 261 260 260 260 259 258 258 258 258 257 256 255 256 257 257 257 257 258 258 257 257
278 277 276 276 275 274 275 274 273 272 270 269 268 267 264 263 261 260 259 258 258 257 257 258 258 258 258 257 256 255 256 256 256 257 257 258 258 258
278 277 275 274 274 274 274 274 274 273 271 270 268 266 264 262 261 259 259 259 257 257 256 257 257 257 257 256 255 255 255 254 255 256 257 257 257 257
278 277 275 274 274 274 274 274 274 273 272 270 267 265 263 261 260 259 259 258 256 255 254 254 255 256 256 256 255 255 255 255 255 256 256 256 257 257
279 278 276 274 273 274 274 273 273 272 271 270 267 265 262 260 259 258 258 257 256 254 254 253 253 254 254 254 254 255 255 255 255 256 256 255 255 256
279 278 277 276 274 274 273 272 271 269 268 267 266 264 262 261 258 257 257 256 256 254 254 253 253 253 253 253 252 254 255 255 255 255 255 256 256 256
279 278 277 276 275 274 273 271 269 268 267 265 264 263 262 260 259 257 256 256 255 254 253 253 253 254 254 252 252 252 253 254 253 253 254 254 254 254
279 278 277 277 276 274 272 270 268 266 264 263 262 262 261 259 258 257 256 256 255 254 254 253 254 253 252 251 250 250 251 253 253 253 253 254 253 252
280 279 278 277 275 274 273 271 269 266 263 262 260 260 259 258 257 256 255 255 256 255 254 252 251 251 251 250 250 250 250 251 252 252 252 253 252 250
282 280 279 277 275 274 273 271 268 266 263 262 259 258 256 256 255 255 254 255 255 254 253 251 250 250 249 248 248 250 250 251 250 249 249 249 250 250
Height
5605 5605 5604 5604 5603 5603 5603 5604 5605 5608 5611 5613 5612 5612 5613 5614 5615 5616 5618 5620 5621 5623 5625 5627 5629 5631 5633 5635 5637 5640 5642 5645 5648 5651 5655 5658 5661 5664
5589 5588 5587 5586 5585 5585 5585 5585 5585 5587 5590 5594 5594 5594 5594 5595 5596 5597 5599 5601 5602 5604 5605 5607 5609 5611 5613 5615 5617 5620 5623 5626 5629 5633 5636 5639 5642 5646
5572 5570 5569 5568 5567 5567 5567 5567 5567 5567 5569 5573 5573 5574 5574 5575 5577 5578 5579 5581 5583 5584 5586 5587 5589 5591 5593 5595 5597 5600 5603 5606 5609 5613 5616 5620 5623 5628
5554 5553 5551 5550 5550 5549 5548 5548 5548 5548 5550 5553 5554 5554 5555 5556 5557 5558 5560 5562 5563 5565 5566 5567 5569 5570 5572 5574 5576 5579 5582 5585 5589 5592 5597 5601 5605 5606
5537 5536 5534 5533 5532 5531 5530 5530 5530 5530 5531 5533 5535 5535 5536 5536 5537 5539 5540 5542 5543 5545 5546 5548 5549 5550 5552 5554 5555 5558 5561 5565 5569 5572 5575 5578 5582 5586
5520 5518 5517 5515 5514 5513 5513 5512 5512 5512 5512 5513 5516 5517 5518 5518 5518 5520 5522 5523 5525 5525 5527 5528 5529 5530 5532 5534 5537 5538 5540 5543 5546 5550 5554 5557 5561 5565
5504 5501 5500 5498 5496 5496 5495 5494 5494 5494 5495 5496 5498 5499 5500 5500 5501 5502 5503 5505 5507 5506 5508 5510 5511 5513 5513 5514 5516 5518 5520 5523 5526 5529 5533 5536 5540 5544
5487 5485 5483 5481 5480 5479 5478 5477 5476 5477 5478 5478 5480 5482 5483 5483 5483 5484 5485 5487 5490 5491 5489 5492 5492 5493 5495 5496 5498 5499 5502 5504 5507 5510 5513 5516 5519 5523
5471 5469 5467 5465 5464 5463 5462 5461 5460 5460 5460 5462 5463 5464 5466 5467 5467 5468 5468 5468 5471 5472 5471 5474 5475 5476 5477 5479 5480 5482 5484 5486 5488 5490 5493 5497 5500 5503
5455 5453 5452 5450 5449 5447 5446 5446 5445 5445 5445 5445 5447 5448 5448 5448 5449 5450 5450 5452 5454 5454 5453 5456 5459 5460 5461 5463 5464 5465 5467 5469 5470 5473 5475 5479 5482 5485
5440 5438 5436 5435 5434 5432 5431 5431 5430 5430 5429 5429 5430 5430 5431 5431 5431 5432 5433 5434 5437 5439 5437 5439 5442 5444 5446 5448 5449 5449 5451 5453 5454 5456 5459 5462 5465 5468
5426 5424 5422 5420 5418 5415 5414 5414 5414 5414 5414 5414 5414 5414 5414 5415 5415 5416 5417 5418 5420 5423 5423 5423 5425 5427 5431 5434 5434 5435 5436 5438 5440 5441 5444 5446 5449 5451
5411 5409 5407 5405 5403 5401 5399 5399 5399 5398 5398 5398 5399 5399 5399 5400 5400 5400 5401 5402 5404 5407 5408 5408 5410 5411 5415 5419 5421 5422 5423 5424 5425 5427 5430 5432 5434 5436
5397 5395 5393 5391 5390 5388 5386 5385 5383 5383 5382 5383 5383 5384 5384 5385 5385 5386 5387 5388 5389 5392 5393 5393 5395 5398 5400 5404 5407 5408 5409 5410 5412 5413 5416 5418 5420 5422
5382 5381 5379 5377 5376 5374 5372 5370 5369 5368 5367 5368 5368 5368 5369 5369 5370 5371 5372 5374 5375 5377 5378 5379 5381 5383 5386 5389 5392 5394 5396 5397 5398 5400 5402 5405 5407 5409
5368 5367 5365 5363 5362 5360 5359 5357 5355 5354 5353 5353 5353 5354 5354 5355 5356 5357 5359 5360 5362 5364 5365 5366 5367 5369 5372 5375 5378 5380 5382 5384 5386 5387 5389 5391 5394 5396
5354 5353 5351 5350 5348 5347 5345 5343 5342 5340 5339 5339 5339 5340 5341 5342 5343 5343 5345 5346 5348 5350 5352 5353 5354 5356 5359 5361 5364 5367 5369 5371 5373 5374 5376 5378 5381 5383
5340 5339 5337 5336 5334 5333 5332 5330 5328 5327 5326 5326 5326 5327 5328 5329 5330 5330 5331 5333 5335 5337 5339 5341 5342 5343 5346 5349 5351 5353 5356 5358 5360 5361 5363 5365 5368 5370
5327 5325 5323 5322 5321 5319 5318 5317 5316 5314 5314 5314 5314 5315 5315 5316 5317 5318 5319 5321 5323 5325 5327 5328 5329 5330 5333 5337 5340 5341 5343 5345 5347 5349 5351 5354 5356 5358
5313 5312 5311 5309 5307 5306 5305 5304 5303 5302 5302 5302 5302 5303 5303 5304 5305 5306 5307 5309 5311 5313 5315 5316 5317 5319 5321 5325 5328 5331 5331 5333 5335 5338 5340 5342 5344 5345
5301 5299 5298 5297 5295 5294 5293 5292 5291 5291 5291 5291 5291 5292 5292 5293 5294 5295 5296 5298 5300 5302 5304 5306 5307 5308 5310 5312 5316 5319 5321 5322 5324 5326 5329 5331 5333 5335
5290 5288 5286 5285 5284 5283 5282 5281 5280 5280 5280 5280 5281 5281 5282 5282 5283 5284 5286 5288 5289 5291 5293 5295 5296 5297 5299 5302 5305 5308 5310 5312 5314 5316 5318 5321 5322 5325
5279 5277 5276 5274 5273 5272 5271 5271 5270 5270 5269 5270 5270 5271 5271 5272 5274 5275 5276 5278 5279 5281 5282 5284 5286 5287 5289 5292 5295 5297 5300 5302 5304 5306 5309 5311 5313 5315